STARLINK-32138 (60255 NORAD) Tracking and Keplerian Element Data

This shows tracking and keplerian element data for the satellite.

Feedback or suggestion? Click here.




ElementValue
Catalog60255
NameSTARLINK-32138
Epoch Orbit1345
Epoch Day286.67931962
Epoch Year2024
RAAN276.7933
Inclination53.158
Eccentricity0.0001408
Argument of Perigee109.2487
Mean Anonmoly250.867
Mean Motion15.39662529
Decay Rate0.00036098
L11 60255U 24131A 24286.67931962 .00036098 00000+0 90689-3 0 9994
L22 60255 53.1580 276.7933 0001408 109.2487 250.8670 15.39662529 13452



Live tracking and technical data element details for STARLINK-32138 (NORAD 60255). STARLINK-32138 can be tracked NOW for your location showing map with azimuth and elevation plus other details from your city location.







IsCatalogInMostPopularTable: catalog: 60255, numindb: 9
Update: records affected: 1



GetName: 60255 STARLINK-32138

Hit Count: updated at: Thu, 23 Jan 2025 15:23:58 GMT